Weather Roundup
Issued by NWS

Home | Current Version | Previous Version | Graphics & Text | Print | Product List | Glossary Off
Versions: 1 2 3 4 5 6 7 8 9 10 11 12 13 14 15 16 17 18 19 20 21 22 23 24 25 26 27 28 29 30 31 32 33 34 35 36 37 38 39 40 41 42 43 44 45 46 47 48 49 50

000
NZUS93 KARX 192259
HRRWXR

CURRENT HOURLY OBSERVATIONS ACROSS
MUCH OF THE UPPER MISSISSIPPI VALLEY
NATIONAL WEATHER SERVICE LA CROSSE WI
500 PM CST THU JAN 19 2017


...SOUTHEAST MINNESOTA...


CITY           SKY/WX    TMP DP  RH WIND       PRES   REMARKS
ROCHESTER      CLOUDY    34  32  92 SE14      29.75F WCI  25
ROCHESTER/MAYO CLOUDY    37  35  93 E8        29.76S WCI  30
WINONA         CLOUDY    36  32  87 SE6       29.81S WCI  31
AUSTIN         CLOUDY    36  32  87 E9        29.74S FOG     WCI  29
ALBERT LEA     CLOUDY    36  34  93 SE6       29.73R WCI  31
DODGE CENTER   MOCLDY    34  32  93 SE12      29.74S WCI  25
PRESTON        CLOUDY    35  32  89 SE8       29.77F WCI  28
OWATONNA       CLOUDY    37  30  75 SE7       29.73S WCI  32
FARIBAULT        N/A     37  34  87 SE5       29.74S WCI  34
$$

...ELSEWHERE IN MINNESOTA...


CITY           SKY/WX    TMP DP  RH WIND       PRES   REMARKS
MINNEAPOLIS    CLOUDY    37  31  78 SE7       29.75S WCI  32
INTNL FALLS    CLEAR     37  32  82 S5        29.63S WCI  33
DULUTH         CLEAR     42  34  73 S6        29.72R
RED WING       CLOUDY    37  32  81 E3        29.77F
REDWOOD FALLS  FOG       36  34  92 SE10      29.69R VSB 1/4 WCI  28
MANKATO        PTCLDY    36  32  85 SE7       29.73S WCI  30
WORTHINGTON    FOG       36  36 100 S9        29.68R VSB 1/4 WCI  29
FAIRMONT       CLOUDY    36  34  92 SE9       29.71S WCI  29
$$

...SOUTHWEST WISCONSIN...


CITY           SKY/WX    TMP DP  RH WIND       PRES   REMARKS
LA CROSSE      CLOUDY    38  33  82 S5        29.81S WCI  34
PRAIRIE DU CHI LGT RAIN  36  34  93 CALM      29.81F
BOSCOBEL       LGT RAIN  38  34  85 CALM      29.83S FOG
LONE ROCK      NOT AVBL
PLATTEVILLE    CLOUDY    36  36 100 E9        29.82S WCI  29
FORT MC COY    CLOUDY    37  33  84 S6        29.84R WCI  33
MAUSTON-NEW LI CLOUDY    36  33  88 S3        29.84R
VIROQUA        CLOUDY    35  34  95 SE7       29.81S WCI  29
WIS DELLS      CLOUDY    36  33  90 CALM      29.84F FOG
$$

...ELSEWHERE IN WISCONSIN...


CITY           SKY/WX    TMP DP  RH WIND       PRES   REMARKS
MILWAUKEE      FOG       36  33  89 SE6       29.88F VSB 1/4 WCI  31
MADISON        CLOUDY    35  34  96 E5        29.85F FOG     WCI  31
GREEN BAY      FOG       34  34 100 SW3       29.89R VSB 1/4
EAU CLAIRE     CLOUDY    38  32  79 S3        29.80R
BLACK RVR FLS  CLOUDY    42  31  66 CALM      29.81S
MEDFORD        FOG       31  31  99 SE5       29.81S VSB 1/2 WCI  26
WAUSAU         CLEAR     34  31  88 SE7       29.82S WCI  28
WIS RAPIDS     PTCLDY    36  32  85 SE8       29.85S WCI  30
MARSHFIELD     CLOUDY    34  31  88 E8        29.80F FOG     WCI  27
RICE LAKE      CLEAR     36  32  86 SE7       29.79R WCI  31
$$

...NORTHEAST IOWA...


CITY           SKY/WX    TMP DP  RH WIND       PRES   REMARKS
WATERLOO       FOG       36  35  96 E14       29.74F VSB 1   WCI  27
DUBUQUE        LGT RAIN  37  36  96 SE10      29.79F FOG     WCI  30
DECORAH        CLOUDY    36  34  93 E7        29.78R FOG     WCI  30
MASON CITY     CLOUDY    35  33  92 SE6       29.73R WCI  30
CHARLES CITY   MIX PCPN  36  36 100 E17       29.73F WCI  25
OELWEIN        LGT RAIN  36  36 100 E12       29.76F WCI  27
$$

...ELSEWHERE IN IOWA...


CITY           SKY/WX    TMP DP  RH WIND       PRES   REMARKS
DES MOINES     FOG       39  38  96 SE8       29.71S VSB 3/4 WCI  33
IOWA CITY      RAIN      39  38  96 E9        29.77F FOG     WCI  33
FORT DODGE     CLOUDY    37  34  87 SE7       29.70S WCI  32
MARSHALLTOWN   LGT RAIN  36  36 100 E9        29.71F FOG     WCI  29
CEDAR RAPIDS   FOG       37  36  96 E10       29.74F VSB 1   WCI  30
$$

...NORTHERN ILLINOIS...


CITY           SKY/WX    TMP DP  RH WIND       PRES   REMARKS
CHICAGO-OHARE  LGT RAIN  39  36  89 E7        29.86F FOG     WCI  34
CHICAGO-MIDWAY LGT RAIN  39  35  86 E8        29.87S FOG     WCI  33
MOLINE         RAIN      39  37  92 E12       29.77F FOG     WCI  32
ROCKFORD       LGT RAIN  39  36  89 E6        29.84F FOG     WCI  35
PEORIA         CLOUDY    42  41  96 E9        29.77F FOG
$$

NOTE: "FAIR" INDICATES FEW OR NO CLOUDS BELOW 12,000 FEET WITH NO
SIGNIFICANT WEATHER AND/OR OBSTRUCTIONS TO VISIBILITY. WIND
SPEEDS ARE IN MILES-PER-HOUR.




USA.gov is the U.S. government's official web portal to all federal, state and local government web resources and services.